TimeEDT,TemperatureF,Dew PointF,Humidity,Sea Level PressureIn,VisibilityMPH,Wind Direction,Wind SpeedMPH,Gust SpeedMPH,PrecipitationIn,Events,Conditions,WindDirDegrees,DateUTC
12:53 AM,57.9,51.1,78,29.96,10.0,SSW,4.6,-,N/A,,Clear,200,2012-10-02 04:53:00
1:53 AM,55.0,51.1,86,29.96,10.0,Calm,Calm,-,N/A,,Clear,0,2012-10-02 05:53:00
2:53 AM,55.9,52.0,87,29.96,10.0,Calm,Calm,-,N/A,,Partly Cloudy,0,2012-10-02 06:53:00
3:53 AM,57.0,52.0,83,29.99,10.0,Calm,Calm,-,N/A,,Mostly Cloudy,0,2012-10-02 07:53:00
4:53 AM,55.9,52.0,87,29.99,10.0,Calm,Calm,-,N/A,,Mostly Cloudy,0,2012-10-02 08:53:00
5:53 AM,55.9,52.0,87,30.00,10.0,Calm,Calm,-,N/A,,Overcast,0,2012-10-02 09:53:00
6:53 AM,55.9,53.1,90,30.03,10.0,Calm,Calm,-,N/A,,Scattered Clouds,0,2012-10-02 10:53:00
7:53 AM,60.1,54.0,80,30.04,10.0,Calm,Calm,-,N/A,,Clear,0,2012-10-02 11:53:00
8:53 AM,62.1,54.0,75,30.05,10.0,Calm,Calm,-,N/A,,Overcast,0,2012-10-02 12:53:00
9:53 AM,66.0,53.1,63,30.05,10.0,Variable,3.5,-,N/A,,Clear,0,2012-10-02 13:53:00
10:53 AM,69.1,55.0,61,30.05,10.0,SW,5.8,-,N/A,,Clear,220,2012-10-02 14:53:00
11:53 AM,68.0,54.0,61,30.05,10.0,South,5.8,-,N/A,,Scattered Clouds,180,2012-10-02 15:53:00
12:53 PM,69.1,55.0,61,30.03,10.0,South,6.9,-,N/A,,Partly Cloudy,180,2012-10-02 16:53:00
1:53 PM,66.9,57.0,70,30.03,10.0,South,5.8,-,N/A,,Mostly Cloudy,190,2012-10-02 17:53:00
2:53 PM,66.9,57.9,73,30.04,10.0,SSW,4.6,-,0.00,,Mostly Cloudy,210,2012-10-02 18:53:00
3:53 PM,64.0,55.0,73,30.04,7.0,SW,3.5,-,0.01,Rain,Light Rain,220,2012-10-02 19:53:00
4:53 PM,62.1,57.9,86,30.04,10.0,Calm,Calm,-,0.00,Rain,Light Rain,0,2012-10-02 20:53:00
5:53 PM,61.0,59.0,93,30.03,6.0,Calm,Calm,-,0.00,Rain,Light Rain,0,2012-10-02 21:53:00
6:53 PM,61.0,57.9,90,30.03,10.0,SE,3.5,-,0.00,Rain,Light Rain,130,2012-10-02 22:53:00
7:53 PM,60.1,57.0,90,30.02,10.0,Calm,Calm,-,0.01,Rain,Light Rain,0,2012-10-02 23:53:00
8:49 PM,60.8,59.0,94,30.04,10.0,Calm,Calm,-,0.00,,Overcast,0,2012-10-03 00:49:00
9:25 PM,62.6,60.8,94,30.04,10.0,ENE,3.5,-,0.00,Rain,Light Rain,70,2012-10-03 01:25:00
9:41 PM,62.6,60.8,94,30.04,10.0,Calm,Calm,-,0.00,Rain,Light Rain,0,2012-10-03 01:41:00
9:53 PM,62.1,60.1,93,30.04,8.0,Calm,Calm,-,0.00,,Overcast,0,2012-10-03 01:53:00
10:53 PM,61.0,60.1,97,30.04,7.0,East,3.5,-,0.01,,Overcast,80,2012-10-03 02:53:00
11:53 PM,61.0,60.1,97,30.03,3.0,ENE,3.5,-,0.00,,Overcast,70,2012-10-03 03:53:00